GFSSGP_925_spd_171.txt.gz
Wind_Speed
17 11 7 5 2 3 3 5 3 3 1 2 4 2 3 2 4 2 9 9 20 33 31 29 27 24 21 20 19 17 15 13 12 11 12 10 8 7 6 5 4 4 4 5 5 6 6 6 7
14 9 4 2 3 3 4 3 4 2 4 11 3 3 3 3 2 3 2 5 21 30 27 26 27 25 21 20 18 16 15 15 14 12 10 10 9 8 6 5 6 6 7 7 5 4 3 4 4
9 7 3 3 3 5 4 3 3 5 7 5 3 1 4 4 4 4 5 10 22 24 25 26 27 24 21 19 18 17 15 14 12 10 9 8 7 7 6 4 3 3 2 1 0 1 1 1 1
7 6 3 2 6 4 4 3 4 9 3 3 4 7 2 3 3 5 5 15 21 24 25 26 25 23 22 21 19 17 14 12 10 9 7 7 6 4 3 3 3 3 2 2 1 1 1 1 1
6 2 1 1 3 4 5 5 3 7 5 5 5 4 5 5 9 5 7 18 22 26 27 24 24 24 22 20 18 17 14 11 9 8 7 5 4 3 3 3 3 2 2 1 1 2 3 3 2
3 2 1 3 3 4 7 5 3 3 3 6 6 6 2 9 7 3 10 20 19 26 25 24 23 23 21 18 18 16 14 11 9 7 5 5 5 5 6 5 4 4 3 3 3 3 4 4 4
4 3 2 0 2 4 4 5 2 3 4 3 4 5 5 13 10 5 12 18 19 21 25 24 23 22 22 19 17 15 13 11 8 7 7 6 6 6 7 6 5 4 4 3 4 4 4 5 6
3 2 2 3 3 5 3 7 3 2 4 8 1 3 4 13 13 8 15 19 20 22 26 27 26 25 21 20 17 14 12 10 9 8 8 7 6 5 5 5 5 5 5 5 5 4 4 5 6
2 2 2 4 5 4 2 6 4 3 5 4 4 4 5 16 10 7 13 19 22 25 27 28 28 23 21 19 16 14 11 11 11 11 9 7 6 7 7 6 6 7 6 6 5 5 5 6 6
3 3 7 5 4 4 4 3 9 6 8 7 11 11 11 16 13 12 11 13 19 25 27 29 27 24 22 19 16 14 13 12 12 11 10 7 7 7 6 6 6 6 6 5 5 4 4 5 6
2 4 4 4 6 5 5 9 5 10 16 13 10 6 17 18 14 17 19 16 21 29 28 28 27 24 22 20 17 15 14 13 12 11 9 9 8 7 6 6 5 5 5 5 5 5 5 5 5
3 7 5 3 1 5 10 11 14 15 24 19 15 14 10 16 18 18 20 20 18 28 31 30 27 25 22 20 18 16 14 13 13 11 9 8 9 9 7 5 4 4 4 4 5 6 6 6 5
4 4 7 6 8 8 10 19 15 23 24 16 16 15 19 18 26 23 22 23 23 27 32 32 29 27 23 21 19 16 15 13 12 11 10 9 9 9 7 6 6 5 5 5 6 7 6 6 5
3 8 12 10 13 10 16 26 10 25 9 16 16 17 14 15 22 20 19 21 24 28 33 33 31 27 25 23 20 17 15 13 12 11 10 10 8 8 7 6 6 5 6 6 7 6 5 4 2
7 13 13 12 7 6 7 19 15 18 15 19 21 19 17 21 28 23 23 25 29 28 34 36 33 28 26 23 20 18 15 13 12 11 11 10 9 8 7 6 6 6 6 6 7 6 4 3 4
5 3 6 4 1 5 5 25 12 12 12 17 18 13 14 19 23 23 22 27 25 31 33 36 33 30 27 23 21 18 15 13 12 12 11 10 9 7 7 7 6 6 6 6 6 5 3 3 3
1 6 7 12 4 9 9 20 4 4 5 11 13 11 12 15 17 21 22 26 27 32 34 34 34 32 28 24 22 18 15 14 13 12 11 10 9 8 7 7 7 6 5 5 5 4 3 1 1
6 12 14 16 2 6 17 31 27 23 17 21 20 15 12 13 16 17 19 26 29 32 36 36 37 31 29 26 23 19 16 14 13 12 11 11 10 9 7 7 7 7 6 5 5 4 5 5 7
13 15 19 21 17 20 22 25 28 24 19 21 20 16 15 15 14 17 20 26 26 27 30 34 35 34 33 31 27 22 19 16 13 12 11 11 10 9 8 7 7 7 6 7 6 5 6 9 11
13 17 20 18 5 9 18 25 27 25 23 24 23 20 19 16 10 11 19 22 27 28 29 28 35 38 36 34 29 24 21 15 14 13 12 11 10 9 8 7 7 7 7 8 8 6 4 9 13
14 11 15 20 19 16 21 19 12 14 22 22 24 22 18 19 14 10 15 22 24 27 31 31 38 38 37 33 27 22 18 17 14 14 13 12 10 9 8 8 7 7 7 8 8 9 6 8 11
12 7 11 13 12 6 3 9 19 8 12 13 19 18 21 18 13 12 14 20 25 29 32 32 36 35 35 32 28 26 22 17 15 16 14 13 11 10 8 8 6 7 8 7 8 8 8 8 8
10 5 14 18 15 11 13 5 8 4 11 10 12 16 18 16 15 16 18 24 24 26 30 32 34 33 33 31 26 24 19 15 16 16 15 13 11 9 8 8 6 6 7 7 7 8 8 9 9
11 13 18 9 4 4 3 7 9 2 5 12 9 13 16 15 14 14 21 22 23 25 26 31 33 34 32 27 24 22 20 18 20 18 17 14 12 10 8 8 6 7 7 7 6 7 7 8 8
4 8 4 4 1 5 4 5 12 9 14 16 21 14 14 14 14 14 17 17 23 25 27 28 31 32 32 27 23 19 17 16 18 20 19 16 13 11 9 9 8 6 8 7 6 7 6 6 6
4 2 3 6 4 12 3 6 5 5 7 18 16 15 8 12 15 16 17 22 26 28 30 31 31 31 32 29 21 19 15 15 15 17 17 14 12 11 10 9 8 6 6 6 6 7 7 6 5
1 4 4 6 4 5 3 6 7 5 16 19 21 11 6 12 14 16 15 21 26 28 29 33 31 34 32 27 22 19 18 17 17 13 14 15 13 13 12 10 10 8 7 7 7 7 7 6 5
5 4 3 2 6 6 5 6 4 16 16 24 22 16 6 10 13 13 12 18 24 27 26 31 30 35 34 29 25 19 18 16 17 17 15 15 15 13 12 11 10 10 8 8 8 8 7 6 6
1 3 4 3 4 4 7 7 3 8 15 24 18 12 5 7 11 13 12 18 17 18 26 30 33 31 32 30 28 22 18 17 17 17 17 16 15 13 12 12 12 11 9 9 8 8 7 6 6
4 5 3 3 4 4 6 8 2 5 20 16 13 6 4 6 11 11 15 22 28 24 24 28 29 32 32 29 26 25 24 20 18 18 18 16 16 14 14 14 12 11 10 9 8 7 7 8 8

GFSSGP_925_spd_177.txt.gz
Wind_Speed
18 13 8 5 5 6 13 14 6 5 7 6 6 7 10 9 8 3 5 2 3 14 21 23 23 22 22 20 18 17 16 15 14 13 12 10 10 10 8 7 7 6 6 7 7 7 7 7 7
15 11 6 3 6 10 10 12 4 3 7 8 4 5 7 3 10 3 3 9 4 16 22 23 25 22 21 20 19 18 16 15 14 13 11 11 11 9 9 8 7 7 7 7 7 6 5 4 4
11 6 4 4 8 12 9 6 3 6 5 6 6 2 5 4 10 5 8 8 5 17 20 22 26 22 21 21 20 18 17 15 14 14 14 11 9 7 7 6 8 7 5 4 3 2 1 1 1
6 5 4 6 12 8 7 2 4 8 3 1 5 11 4 5 8 10 11 6 9 16 18 23 25 25 22 20 19 18 17 16 14 14 12 10 8 7 6 5 5 5 4 3 2 1 1 1 1
4 3 7 7 12 9 5 9 9 10 10 8 4 7 4 7 12 10 8 3 9 14 15 20 22 25 23 21 21 19 18 16 14 11 10 10 9 7 5 4 4 4 3 3 3 3 3 3 3
3 3 6 10 11 4 6 9 9 11 10 8 10 12 9 8 14 11 9 4 8 9 14 16 24 24 23 22 21 20 17 16 13 12 10 8 8 7 7 6 5 5 5 4 5 5 5 5 4
4 4 9 10 12 11 10 6 11 11 12 13 6 11 6 5 11 12 13 5 10 14 17 20 21 23 22 22 22 20 17 15 14 12 10 9 8 8 8 8 7 6 5 5 6 6 6 7 6
4 3 5 4 8 12 5 7 8 11 14 8 7 7 11 7 7 11 9 8 10 16 19 21 22 22 21 24 23 20 17 15 13 14 12 10 10 9 7 5 8 7 6 7 6 6 7 7 8
3 4 6 8 7 7 4 11 12 11 12 14 16 16 16 19 14 12 11 9 11 15 20 20 20 23 24 27 23 21 17 16 15 13 10 11 7 7 9 8 8 8 8 7 7 8 7 7 8
3 4 6 6 10 12 14 14 16 15 17 18 17 18 20 21 19 18 13 14 10 13 17 19 19 22 26 26 24 18 16 14 12 11 12 10 10 9 9 9 8 9 8 7 7 7 9 6 4
2 4 8 10 11 13 17 19 17 18 23 21 17 18 15 15 17 18 21 18 16 14 15 14 23 28 29 27 24 18 16 14 14 13 12 10 10 11 8 8 7 7 9 6 6 6 4 4 4
6 8 8 9 12 16 18 19 23 21 28 22 22 23 21 21 19 22 24 24 20 16 14 17 27 29 32 31 28 22 18 16 14 15 14 12 10 11 10 8 8 7 6 7 6 5 5 5 5
11 9 8 13 17 17 20 23 25 28 25 24 24 22 23 22 23 26 27 28 25 23 17 19 19 34 37 37 28 24 19 18 16 15 15 13 11 11 11 9 8 7 7 6 6 6 5 5 5
8 13 18 15 16 16 19 21 22 27 16 15 18 20 19 21 22 26 28 29 29 26 22 19 20 28 29 42 33 26 20 18 17 15 14 13 13 12 11 10 9 8 7 7 6 6 5 5 4
11 14 14 10 6 13 13 20 15 13 11 17 18 19 20 21 25 26 28 28 28 27 22 20 18 27 26 28 36 32 22 20 18 15 15 14 14 13 12 11 10 8 8 8 7 7 5 5 5
7 8 8 4 10 10 4 19 15 18 15 19 21 18 18 21 22 27 27 28 28 28 24 18 17 26 33 18 30 30 24 19 19 16 15 15 14 14 12 11 10 9 9 8 7 7 5 5 4
5 9 19 17 7 11 7 23 18 14 21 29 27 26 25 25 25 25 24 27 27 27 25 20 21 22 26 21 15 25 27 19 17 17 16 15 15 14 12 11 10 10 9 8 7 6 5 4 3
16 20 20 21 9 22 24 29 30 23 23 27 26 23 23 23 23 30 30 26 26 26 25 21 24 21 28 22 16 17 26 16 17 17 16 15 14 14 14 13 12 10 10 9 8 7 6 4 1
16 18 22 22 22 17 18 26 31 29 23 23 19 17 18 20 18 27 29 27 25 24 24 22 26 28 31 31 30 17 22 23 18 18 17 15 15 15 15 14 12 10 10 10 9 8 7 5 3
15 19 22 21 14 18 22 31 29 25 14 12 13 13 15 17 16 18 25 26 26 24 23 27 30 33 31 34 31 21 19 22 20 21 17 15 16 16 15 15 13 12 12 10 9 8 7 5 5
15 18 21 22 24 21 18 23 17 18 19 9 5 8 12 15 15 16 19 24 26 25 20 28 32 35 33 31 34 22 17 16 20 22 19 16 16 17 16 15 14 13 11 11 10 9 6 7 7
12 11 19 23 18 10 9 14 17 17 12 15 7 12 13 16 19 15 18 21 23 26 22 28 34 34 32 34 31 36 17 11 18 23 21 19 16 17 17 16 15 13 12 11 10 9 9 8 6
10 16 21 25 19 13 15 8 8 19 18 4 11 14 17 21 20 20 17 22 21 21 21 27 34 35 32 32 28 30 24 15 16 22 24 21 18 18 17 16 15 14 13 12 12 11 10 11 9
16 18 23 7 2 5 8 10 16 16 17 17 12 15 20 25 24 20 18 22 20 19 23 26 31 33 33 32 33 27 26 20 18 22 23 21 19 18 17 16 14 14 13 13 12 12 11 12 12
4 15 8 3 6 10 11 18 19 24 17 17 14 21 26 26 19 17 15 15 19 21 22 27 29 29 31 31 31 26 25 23 20 23 23 22 19 18 17 16 15 14 14 14 13 13 12 11 11
15 5 6 9 14 21 20 9 11 21 17 10 19 24 27 24 17 15 12 13 18 24 24 27 28 28 30 32 26 26 16 20 20 19 23 20 19 19 19 17 16 15 14 14 14 14 12 12 10
3 5 10 9 18 14 10 17 21 15 15 20 23 18 21 20 16 11 11 14 19 22 24 29 29 31 33 31 24 30 23 22 20 21 20 20 21 22 19 18 16 15 14 14 13 13 13 11 9
13 9 5 4 8 15 13 21 11 18 18 20 20 23 20 19 14 7 11 13 16 20 24 28 33 35 33 29 30 23 17 21 22 21 21 21 22 22 21 19 17 14 14 15 14 15 11 11 11
8 7 6 4 5 6 12 14 16 12 20 18 22 24 17 15 5 6 8 13 15 20 24 25 28 34 30 26 31 27 22 22 23 23 23 22 22 22 21 20 17 15 15 14 14 13 11 11 9
7 12 11 4 8 12 12 18 11 14 16 18 23 19 13 10 4 10 10 13 16 19 19 22 29 31 26 28 29 29 24 21 22 21 24 24 23 21 22 21 19 17 16 14 12 11 11 11 9

GFSSGP_925_spd_183.txt.gz
Wind_Speed
20 16 16 4 4 5 3 6 4 10 6 4 6 5 7 4 4 2 4 9 10 18 22 23 20 20 19 18 17 17 18 16 17 16 13 13 13 13 13 11 11 10 11 12 12 11 10 10 9
20 17 4 2 4 2 4 2 7 5 3 7 7 6 7 3 5 4 6 15 6 15 21 24 21 21 20 19 18 18 18 16 15 15 14 13 13 12 10 10 11 12 11 9 9 10 9 7 6
19 7 3 4 3 4 3 3 3 5 6 7 6 4 4 4 6 4 7 14 5 7 22 22 21 21 21 20 19 19 18 16 15 15 14 15 14 12 11 12 12 11 10 9 8 7 6 5 4
9 6 4 4 3 5 3 2 3 5 8 8 3 4 5 10 3 6 6 11 10 12 23 19 20 20 20 20 21 20 19 17 17 14 17 17 12 10 10 10 10 9 8 8 6 5 5 4 4
3 3 3 1 4 3 3 3 7 7 5 7 7 6 2 5 7 7 9 11 9 5 21 19 20 21 21 20 20 20 20 18 17 19 16 12 12 11 10 9 9 9 8 8 7 6 6 6 6
4 3 4 1 4 5 3 5 3 5 4 7 6 7 1 5 8 9 7 7 9 5 16 21 20 23 23 23 21 21 20 18 20 19 16 13 12 11 10 9 9 9 9 9 9 8 7 7 9
4 3 2 2 4 4 2 3 5 4 5 4 2 4 1 2 6 6 10 9 7 5 4 13 19 22 23 24 23 22 20 21 21 18 16 15 12 10 10 10 10 10 10 10 10 9 9 10 12
3 3 3 4 3 1 7 6 3 6 6 3 3 4 6 3 5 6 8 14 11 8 9 7 13 19 23 24 22 22 22 24 20 19 17 13 12 11 11 12 12 11 11 10 11 10 11 13 16
3 4 2 5 5 7 7 8 6 8 6 3 4 6 13 24 10 12 10 12 11 13 11 13 13 18 24 25 24 23 25 24 21 19 16 15 13 14 13 12 13 12 11 11 11 11 13 15 18
4 3 1 2 3 4 6 7 8 6 13 17 7 10 19 21 20 8 8 12 10 10 13 14 14 15 20 26 26 27 28 26 24 22 18 15 14 15 14 13 13 13 12 12 12 12 15 15 16
4 3 5 3 4 7 7 9 4 7 11 10 9 9 12 19 24 15 13 14 14 14 16 17 16 16 20 24 28 30 31 29 24 24 20 20 17 16 13 15 16 14 13 15 15 15 14 14 12
3 5 4 4 6 5 6 5 6 10 20 16 18 16 12 12 9 15 16 21 20 20 20 20 20 17 21 23 33 36 35 32 28 26 25 23 23 20 14 17 16 15 15 16 17 12 10 14 12
2 3 7 9 12 9 9 11 7 16 18 16 15 16 15 14 17 23 26 28 25 23 23 20 20 18 15 22 34 36 37 34 31 28 30 26 26 22 16 17 17 17 15 15 14 14 13 14 15
4 5 12 8 8 7 8 8 2 11 8 12 11 13 12 10 13 18 20 22 25 25 26 25 24 22 18 20 24 19 26 28 29 30 31 31 26 23 21 19 18 16 15 14 17 17 16 13 13
5 5 8 5 2 6 3 3 9 16 10 10 10 9 9 9 19 17 26 22 25 26 26 24 27 25 24 21 26 27 9 18 27 28 28 29 26 26 23 23 21 20 17 19 18 19 18 16 14
2 1 5 6 10 6 1 8 6 13 14 12 19 20 17 16 18 26 29 26 28 26 25 26 26 22 26 24 25 26 24 18 20 27 23 22 24 27 25 24 22 21 19 20 20 18 18 15 12
3 3 6 9 8 5 4 16 13 13 18 20 16 16 15 16 17 26 33 35 36 32 26 20 22 24 25 22 19 21 22 27 22 24 23 19 20 23 26 25 23 20 21 20 19 17 18 17 16
6 5 5 11 6 18 19 23 16 18 15 17 19 19 17 15 15 17 17 22 30 30 27 24 21 23 26 22 20 21 25 26 26 27 23 19 17 20 23 24 24 22 21 22 21 20 19 18 17
5 5 11 15 18 14 14 19 25 22 20 15 12 12 10 9 6 2 6 10 13 18 22 24 21 25 26 22 23 24 27 25 26 27 29 19 17 19 22 24 25 23 23 23 21 23 22 18 16
7 8 12 12 8 10 19 20 23 18 11 9 12 9 8 3 3 5 8 11 13 17 21 25 25 27 28 28 28 22 31 28 29 29 28 29 18 17 19 22 24 25 24 22 22 23 20 19 18
6 6 7 10 14 10 12 7 6 19 10 8 12 8 7 5 3 3 4 9 18 23 21 24 28 29 31 29 29 23 24 27 24 29 32 32 28 14 18 22 23 24 24 23 22 21 21 16 12
4 5 7 12 8 5 7 7 7 8 9 11 7 2 5 3 4 5 5 10 19 29 32 30 32 34 32 31 31 34 27 26 23 29 32 27 26 18 20 22 24 24 23 22 21 18 16 23 19
9 3 8 14 9 3 4 3 7 7 16 11 6 5 5 6 6 8 10 19 28 28 33 32 41 39 35 37 36 34 29 28 30 32 29 31 23 28 22 23 23 23 23 21 19 17 17 20 16
7 6 10 2 4 1 5 3 14 7 2 2 4 7 7 7 12 18 29 34 26 30 30 25 36 37 36 37 36 35 33 32 30 31 31 32 29 24 22 20 21 23 23 22 20 19 18 17 17
4 6 4 6 4 5 4 9 10 13 1 3 5 5 7 8 13 17 19 17 25 23 18 27 31 30 33 33 36 35 38 38 40 39 34 32 30 26 23 24 23 22 23 23 23 22 21 19 20
3 5 4 4 3 11 14 6 6 5 7 5 5 7 15 20 20 22 17 15 21 23 22 26 28 28 30 32 32 35 37 34 32 30 28 37 32 27 23 25 24 24 24 25 25 25 23 21 21
1 1 5 3 5 3 4 8 15 7 9 9 10 14 18 23 22 18 17 18 15 18 26 27 27 27 30 32 35 34 34 34 34 35 27 28 31 27 26 25 26 25 25 25 26 27 25 22 20
5 2 3 2 4 6 6 9 7 11 7 9 10 16 22 20 20 18 16 1 9 15 19 21 25 27 30 34 34 36 35 35 35 31 27 25 37 34 30 28 26 26 25 25 26 26 23 23 19
2 2 2 1 2 4 5 8 4 14 16 10 14 21 20 19 18 11 7 9 11 13 15 18 22 27 28 32 34 33 34 35 34 29 29 30 35 32 31 30 28 27 26 25 25 24 21 22 20
6 8 7 4 5 5 4 22 18 15 9 3 13 19 17 15 16 7 3 2 10 13 14 16 20 25 26 31 35 33 34 34 32 31 32 32 36 33 32 29 28 28 26 25 23 23 20 20 19

GFSSGP_925_spd_189.txt.gz
Wind_Speed
20 11 1 5 4 5 1 0 1 6 6 2 5 2 6 2 2 2 6 9 5 10 19 17 16 15 15 15 15 16 16 17 16 15 13 13 12 12 12 12 12 13 12 12 12 11 10 9 9
15 3 4 3 5 3 3 3 0 2 4 7 1 1 5 3 2 3 3 9 2 10 18 19 17 16 16 16 15 16 16 15 17 15 16 14 12 12 12 12 11 10 11 10 8 9 8 8 8
4 4 4 4 3 3 3 2 3 3 5 6 3 4 2 1 2 2 5 5 3 11 17 19 19 18 17 17 16 17 17 15 17 15 15 15 14 13 11 10 10 12 11 8 7 8 7 6 6
3 6 4 4 3 1 1 3 3 6 4 6 4 3 3 3 2 2 5 8 4 11 16 19 19 20 21 20 19 18 20 17 17 16 15 15 15 11 10 11 12 11 11 9 8 7 6 6 5
6 3 4 4 1 2 3 3 5 4 3 5 6 4 5 2 1 1 5 9 7 5 13 18 20 21 23 23 22 22 20 20 18 17 17 17 17 17 13 11 11 11 10 9 8 7 7 6 6
4 3 5 2 1 0 2 5 4 4 3 8 5 4 5 1 2 1 6 14 8 4 8 16 20 22 23 24 23 25 23 22 21 20 19 20 15 13 13 14 13 11 9 8 8 8 6 6 6
5 4 4 3 1 1 1 7 1 3 5 4 2 2 3 4 4 3 5 12 12 6 3 11 18 21 22 25 24 24 24 24 22 20 23 20 16 14 13 12 13 12 10 10 9 7 7 7 8
4 4 3 1 1 2 3 7 1 2 5 7 3 4 3 3 12 8 12 11 12 10 5 6 11 20 22 24 24 25 25 25 23 22 22 20 18 16 14 13 12 12 12 10 10 9 8 9 12
2 4 2 2 2 3 3 6 3 1 4 3 5 4 4 13 16 15 21 17 12 10 11 6 7 11 19 24 27 26 26 26 24 24 26 22 21 18 16 15 14 14 13 12 10 10 12 13 13
5 3 4 2 1 3 4 2 5 5 3 5 5 8 13 13 15 17 21 21 20 16 13 11 8 8 8 14 23 29 30 29 27 30 29 25 22 20 18 16 17 16 14 13 12 10 14 16 14
3 2 0 2 1 1 4 5 3 3 7 8 6 6 6 12 19 15 20 24 25 21 16 15 15 13 11 12 10 21 31 32 30 33 31 27 25 22 20 19 19 18 16 15 14 15 15 15 18
3 2 1 3 0 4 5 6 6 7 10 3 8 8 6 11 8 15 20 26 26 24 19 16 17 19 15 13 13 12 23 32 33 36 34 30 28 25 23 22 21 20 19 19 17 18 18 15 18
2 3 4 6 8 7 4 8 7 12 15 10 9 9 11 10 14 25 22 22 24 27 25 20 21 20 19 17 15 14 16 27 35 37 37 34 32 30 26 24 23 22 21 21 20 18 20 16 18
2 5 7 6 3 5 4 5 0 9 4 7 8 12 11 11 16 20 24 26 28 30 28 24 19 19 21 20 18 16 16 20 22 31 37 36 34 31 28 25 23 22 21 22 22 19 17 18 18
3 7 6 2 0 4 1 7 9 17 7 9 12 13 15 15 21 20 27 27 30 30 27 26 22 20 19 20 20 18 17 19 22 26 27 26 25 25 24 25 24 21 20 21 20 18 19 21 20
4 4 6 2 5 2 6 10 17 6 7 13 16 15 13 16 14 25 28 28 28 27 27 26 24 22 21 21 21 19 17 20 22 24 23 20 28 22 21 19 22 21 21 20 19 20 22 22 22
7 2 3 9 1 3 2 13 21 20 12 13 12 11 11 13 15 21 21 21 22 21 22 22 21 24 21 21 22 20 20 18 17 18 22 24 27 28 25 18 18 20 20 20 21 23 25 24 22
3 4 4 7 5 2 9 20 22 17 8 12 12 12 10 9 14 19 11 9 7 7 10 13 16 18 20 18 18 19 17 18 20 21 21 26 29 26 25 20 14 17 17 21 25 27 25 24 23
2 3 5 8 7 6 3 12 26 20 12 8 9 9 10 9 8 8 12 13 14 12 12 11 11 10 16 20 17 17 21 21 20 22 24 27 30 30 30 30 26 14 20 24 27 27 25 23 24
3 4 7 8 3 5 11 18 20 12 8 6 7 10 9 7 5 7 11 12 14 17 18 19 18 12 15 19 20 16 20 21 22 23 25 32 33 30 29 30 30 22 21 25 27 27 24 24 25
3 4 4 7 7 4 9 7 6 7 4 5 3 4 3 4 5 6 9 16 21 25 30 35 34 24 19 23 18 15 17 15 19 21 28 33 34 35 35 34 33 33 28 28 27 27 28 28 19
3 4 5 6 6 3 5 5 8 5 10 6 5 4 5 5 5 5 8 18 24 29 32 35 36 34 29 32 26 27 25 17 19 29 28 32 34 36 37 34 33 31 33 23 25 27 27 32 26
7 2 5 1 3 3 2 1 9 3 7 7 6 7 7 8 8 9 12 26 32 30 34 34 35 36 31 36 35 34 30 27 25 28 30 34 36 36 34 33 30 28 25 29 26 28 25 29 31
5 5 3 3 3 2 3 3 7 3 6 5 3 7 9 9 10 14 23 27 29 33 32 35 35 36 33 36 38 36 35 30 29 30 29 33 35 35 33 30 29 28 29 30 29 25 24 24 29
3 6 4 6 4 5 4 1 12 7 8 7 11 9 9 9 11 15 16 15 22 28 30 29 30 30 28 33 36 35 32 33 36 37 33 33 33 32 33 31 30 30 29 27 26 21 21 21 24
1 4 4 5 3 6 4 7 6 8 8 8 7 7 9 11 14 17 17 18 20 24 27 27 27 27 26 32 34 31 32 31 31 35 34 35 38 35 30 31 29 28 27 24 23 20 19 20 20
2 2 1 1 1 3 4 8 9 5 2 3 8 9 14 11 14 17 16 20 20 18 19 21 15 20 25 32 31 31 31 30 28 28 34 32 31 34 31 25 24 28 27 26 26 26 23 21 21
4 5 2 2 3 5 6 6 9 10 10 5 8 13 12 10 15 14 14 17 17 19 16 10 2 9 16 21 23 26 30 29 29 33 31 30 30 32 31 27 25 26 28 28 28 28 26 26 23
2 2 3 2 4 4 5 9 7 11 10 7 11 10 9 15 15 13 13 14 16 16 9 3 3 11 14 17 19 23 24 28 31 29 31 31 30 33 32 31 29 28 29 29 30 31 29 27 23
3 5 5 3 4 5 3 17 14 16 8 8 18 11 9 12 14 11 9 13 16 8 5 2 3 11 16 20 20 22 26 29 28 28 29 32 34 33 33 33 31 28 29 29 31 32 27 29 25